This is the latest recevied weather packets stored in our database for station/object XE2OR-10. If no packets are shown the sender has not sent any weather packets the latest 10 day(s).
| Time | Temp. | Humidity | Pressure | Rain* | Wind** | Luminosity | Snow |
|---|---|---|---|---|---|---|---|
| 1777595929 | 22.78° C | 87% | 1012.9 hPa | 0 mm | - | 0 W/m² | - |
| 1777595629 | 22.78° C | 88% | 1012.6 hPa | 0 mm | - | 0 W/m² | - |
| 1777595329 | 22.22° C | 88% | 1012.5 hPa | 0 mm | - | 0 W/m² | - |
| 1777595033 | 22.22° C | 89% | 1011.9 hPa | 0 mm | - | 0 W/m² | - |
| 1777594729 | 22.22° C | 89% | 1012.3 hPa | 0 mm | - | 1 W/m² | - |
| 1777594432 | 22.22° C | 89% | 1012.3 hPa | 0 mm | - | 3 W/m² | - |
| 1777594128 | 22.22° C | 89% | 1012.2 hPa | 0 mm | - | 4 W/m² | - |
| 1777593829 | 22.22° C | 89% | 1012.4 hPa | 0 mm | - | 6 W/m² | - |
| 1777593529 | 22.22° C | 89% | 1012.2 hPa | 0 mm | - | 7 W/m² | - |
| 1777593232 | 22.22° C | 89% | 1012 hPa | 0 mm | - | 9 W/m² | - |
| 1777592928 | 22.22° C | 89% | 1012.2 hPa | 0 mm | - | 8 W/m² | - |
| 1777592632 | 22.22° C | 89% | 1012.3 hPa | 0 mm | - | 10 W/m² | - |
| 1777592329 | 22.22° C | 89% | 1012.6 hPa | 0 mm | - | 10 W/m² | - |
| 1777592029 | 22.22° C | 89% | 1013.1 hPa | 0 mm | - | 6 W/m² | - |
| 1777591729 | 22.22° C | 89% | 1012.9 hPa | 0 mm | - | 7 W/m² | - |
| 1777591432 | 22.22° C | 89% | 1012.8 hPa | 0 mm | - | 10 W/m² | - |
| 1777591129 | 22.78° C | 88% | 1012.7 hPa | 0 mm | - | 14 W/m² | - |
| 1777590832 | 23.33° C | 87% | 1012.9 hPa | 0 mm | - | 12 W/m² | - |
| 1777590529 | 23.33° C | 87% | 1012.8 hPa | 0 mm | - | 7 W/m² | - |
| 1777590229 | 23.33° C | 87% | 1012.4 hPa | 0 mm | - | 10 W/m² | - |
| 1777589929 | 23.33° C | 87% | 1012.4 hPa | 0 mm | - | 16 W/m² | - |
| 1777589633 | 23.33° C | 87% | 1012.4 hPa | 0 mm | - | 22 W/m² | - |
| 1777589329 | 23.33° C | 87% | 1012.6 hPa | 0 mm | - | 21 W/m² | - |
| 1777589032 | 23.33° C | 87% | 1012.4 hPa | 0 mm | - | 22 W/m² | - |
| 1777588729 | 23.33° C | 87% | 1012.7 hPa | 0 mm | - | 14 W/m² | - |
* Rain latest hour (hover to see other rain measurements)
** Current wind speed in m/s (hover to see current wind gust speed)